map of ACA home
ACA - Airport
Location
City:  Acapulco, Guerrero, México
Name:General Juan N. Álvarez International Airport
ICAO:MMAA
IATA:ACA

Details
Type:Airport (Aerodrome, Airfield)
Use:Public/Civil, International (customs port of entry)
Latitude:16°45'25"N (16.757061)
Longitude:99°45'14"W (-99.753952)
Datum:WGS 1984
Elevation:16 ft (5 m)
Variation:4.99°E (WMM2015 magnetic declination)
-0.11° annual change
Runways:2
Longest:10832 × 148 ft (3302 × 45 m), paved

Time
Time Zone:UTC-6 (DST-5)
Local Time:

Weather
METAR:MMAA 220348Z 00000KT 5SM SKC 27/25 A2988 RMK HZY
TAF:MMAA 212318Z 2200/2306 24008KT 6SM HZ SKC TX31/2218Z TN24/2213Z
BECMG 2202/2203 30005KT
FM221700 22006KT 6SM HZ SKC
FM222100 22010KT P6SM SKC
BECMG 2302/2303 32005KT

Related Locations
Nearby:
Farthest:NKW: 11600 mi / 18668 km
Diego Garcia, Chagos Archipelago, IO

Find:

   beyond  
but within

Other Information
Maps:
NOTAMs:
Links:
Sources:

  
flag of México
flag of Guerrero
  

Sectional Chart

Flight Planning
at skyvector.com

Satellite Image

Google Maps Satellite view

 

Copyright © 2004-2018 Karl L. Swartz. All rights reserved.
The Great Circle Mapper name and logo are trademarks of the Great Circle Mapper.
All other trademarks mentioned herein belong to their respective owners.
Please see credits for attibutions and further copyright information.

  Follow gcmap on Facebook Follow gcmap on Twitter Follow gcmap on Google+ GCmap on LinkedIn

hCard Microformat

Geo Microformat